This is the latest recevied weather packets stored in our database for station/object KG5WBN. If no packets are shown the sender has not sent any weather packets the latest 10 day(s).
| Time | Temp. | Humidity | Pressure | Rain* | Wind** | Luminosity | Snow |
|---|---|---|---|---|---|---|---|
| 1777941510 | 22.78° C | 34% | 1013.2 hPa | 0 mm | - | 1 W/m² | - |
| 1777941207 | 22.78° C | 33% | 1013.2 hPa | 0 mm | - | 3 W/m² | - |
| 1777940902 | 22.78° C | 35% | 1013.2 hPa | 0 mm | - | 5 W/m² | - |
| 1777940600 | 23.33° C | 35% | 1013.5 hPa | 0 mm | - | 8 W/m² | - |
| 1777940298 | 23.33° C | 35% | 1013.5 hPa | 0 mm | - | 14 W/m² | - |
| 1777939995 | 23.33° C | 35% | 1013.5 hPa | 0 mm | - | 13 W/m² | - |
| 1777939692 | 23.33° C | 34% | 1013.5 hPa | 0 mm | - | 16 W/m² | - |
| 1777939390 | 23.33° C | 34% | 1013.5 hPa | 0 mm | - | 16 W/m² | - |
| 1777939086 | 23.33° C | 34% | 1013.5 hPa | 0 mm | - | 18 W/m² | - |
| 1777938783 | 23.89° C | 34% | 1013.2 hPa | 0 mm | - | 18 W/m² | - |
| 1777938480 | 23.89° C | 34% | 1013.5 hPa | 0 mm | - | 22 W/m² | - |
| 1777938178 | 23.89° C | 33% | 1013.5 hPa | 0 mm | - | 25 W/m² | - |
| 1777937874 | 23.89° C | 33% | 1013.5 hPa | 0 mm | - | 30 W/m² | - |
| 1777937569 | 23.89° C | 33% | 1013.5 hPa | 0 mm | - | 34 W/m² | - |
| 1777937267 | 24.44° C | 32% | 1013.9 hPa | 0 mm | - | 41 W/m² | - |
| 1777936964 | 25° C | 31% | 1013.5 hPa | 0 mm | - | 59 W/m² | - |
| 1777936660 | 25° C | 32% | 1013.5 hPa | 0 mm | - | 133 W/m² | - |
| 1777936357 | 25° C | 32% | 1013.9 hPa | 0 mm | - | 66 W/m² | - |
| 1777936053 | 24.44° C | 31% | 1013.9 hPa | 0 mm | - | 58 W/m² | - |
| 1777935751 | 25° C | 31% | 1013.5 hPa | 0 mm | - | 61 W/m² | - |
| 1777935450 | 25° C | 30% | 1013.9 hPa | 0 mm | - | 93 W/m² | - |
| 1777935146 | 25° C | 29% | 1013.9 hPa | 0 mm | - | 70 W/m² | - |
| 1777934843 | 25° C | 29% | 1013.9 hPa | 0 mm | - | 78 W/m² | - |
| 1777934540 | 25° C | 27% | 1014.2 hPa | 0 mm | - | 50 W/m² | - |
| 1777934236 | 25° C | 26% | 1014.2 hPa | 0 mm | - | 46 W/m² | - |
* Rain latest hour (hover to see other rain measurements)
** Current wind speed in m/s (hover to see current wind gust speed)